Lapse_Rate
7.7 7.8 7.0 7.0 7.1 7.1 7.1 7.1 6.9 6.9 7.0 6.5 6.6 5.4 6.3 6.9 6.5 7.8 9.2 9.0 8.7 8.0 8.0 8.2 8.1 7.3 7.3 7.2 6.5 7.0 6.8 6.9 6.6 6.5 6.5 6.5 6.5 6.5 6.5 6.5 6.5 6.5 6.5 6.5 6.5 6.5 6.5 6.9 6.8 6.5 6.7 7.1 7.2 7.3
8.0 7.7 7.5 7.2 6.9 6.4 6.9 7.1 7.1 6.9 6.1 6.5 6.3 5.4 6.5 6.9 6.4 5.6 8.8 7.8 8.1 7.7 8.0 8.4 8.2 7.9 8.0 8.4 7.6 7.5 7.0 6.9 6.9 6.5 6.5 6.5 6.6 6.5 6.5 6.5 6.5 6.5 6.5 6.5 6.5 6.5 6.7 7.3 7.1 7.5 7.6 7.3 7.4 7.4
7.4 8.0 7.7 7.4 7.1 7.0 6.8 6.9 7.0 6.8 6.3 5.9 5.6 5.5 7.0 6.6 6.3 6.0 9.2 8.8 8.5 8.1 7.9 7.8 7.9 8.5 9.0 7.8 8.1 7.1 7.5 7.8 7.4 7.9 6.8 6.5 6.5 6.5 6.5 6.5 6.5 6.5 6.8 6.5 6.5 6.5 6.6 6.6 7.3 6.8 7.2 7.6 7.9 7.9
7.2 7.2 7.8 7.3 6.9 6.6 6.5 6.5 6.9 6.7 6.0 5.6 5.1 6.1 7.6 6.6 6.3 5.8 9.3 8.7 8.9 8.2 6.8 7.4 8.8 8.7 9.5 8.6 8.9 8.8 8.4 8.2 8.3 8.0 6.8 6.5 6.5 6.9 6.5 6.5 6.5 6.7 6.6 6.5 6.5 6.6 6.9 7.2 7.5 7.7 7.9 8.0 8.0 8.1
7.4 6.9 6.7 6.9 7.0 6.6 6.5 6.5 6.9 6.6 5.7 5.6 6.2 7.5 7.8 7.0 7.0 8.2 9.7 9.5 8.9 8.0 6.7 7.3 8.6 9.0 9.3 9.1 8.8 8.9 8.5 8.1 7.6 7.0 6.6 6.5 6.9 6.6 6.7 6.5 6.5 6.9 6.5 6.5 6.5 6.9 6.9 7.1 7.7 8.0 7.8 7.8 8.0 8.0
7.6 7.0 6.5 6.8 7.0 6.6 6.5 6.5 6.7 6.3 5.9 6.0 6.5 7.7 7.0 7.1 7.3 9.3 7.5 8.9 8.2 8.9 7.5 6.5 8.4 8.4 8.8 8.9 8.6 8.4 8.4 8.1 7.8 7.1 6.8 7.2 7.7 6.9 6.5 6.5 6.9 7.4 7.6 7.6 7.0 7.7 7.7 7.9 8.1 8.3 8.0 8.2 8.2 8.2
7.8 7.2 6.5 6.4 6.5 6.5 6.6 6.8 6.8 5.9 5.7 6.3 7.3 8.1 7.2 7.8 8.8 8.1 7.4 8.0 7.3 7.6 7.6 6.7 6.7 8.2 8.7 8.5 8.4 8.2 8.4 8.0 7.9 7.3 6.9 7.0 7.0 7.1 6.5 6.5 7.0 7.6 7.8 7.8 8.0 7.9 7.3 7.8 7.7 8.3 8.3 8.4 8.4 8.6
7.9 7.3 6.4 5.9 6.0 6.7 6.5 6.5 6.3 6.1 6.2 6.4 7.3 8.5 8.0 8.7 6.7 7.4 7.6 6.3 5.8 8.5 8.2 6.5 6.5 7.1 8.5 7.3 7.1 8.3 7.5 7.7 7.5 7.3 7.4 6.9 7.2 7.0 6.5 6.8 7.4 7.8 7.9 7.9 7.9 8.2 8.1 8.3 8.3 8.2 8.5 8.6 8.2 8.3
7.8 7.1 6.2 6.0 6.3 6.6 6.7 6.7 6.0 5.7 6.3 6.6 6.6 6.9 8.4 8.5 8.3 8.5 7.2 5.6 8.1 8.4 6.6 6.8 6.5 6.5 8.3 7.5 7.8 7.6 7.8 6.5 7.7 6.6 6.7 7.0 6.6 6.5 6.6 7.0 7.3 7.6 7.5 7.6 8.0 8.1 8.1 7.9 8.0 8.2 8.3 8.3 8.0 8.3
7.6 6.1 5.9 6.7 6.6 6.3 6.8 7.3 6.5 5.9 6.5 6.1 6.6 6.3 6.3 8.6 6.1 6.2 7.7 8.0 7.3 8.0 7.9 6.6 7.5 6.5 7.5 7.2 6.9 6.9 7.1 6.5 6.5 6.6 7.4 6.5 6.5 7.4 7.7 7.8 7.9 7.9 8.1 8.0 7.4 7.3 7.6 7.6 7.8 8.0 8.0 8.5 8.4 8.4
7.6 5.8 6.2 7.1 6.4 6.7 6.8 7.2 6.3 6.2 6.0 6.8 6.2 6.8 8.2 6.2 7.9 8.2 6.9 6.8 7.0 6.6 7.4 7.3 7.2 6.6 7.9 6.5 6.5 7.2 6.5 6.5 6.5 6.5 6.5 6.5 6.5 6.7 7.7 7.8 8.2 8.2 8.2 8.1 8.3 8.3 8.3 8.0 7.9 7.8 7.9 8.4 8.8 8.6
7.6 5.8 6.1 6.9 6.5 6.8 6.0 5.9 5.6 6.0 7.2 7.4 7.9 8.4 8.3 8.2 7.4 6.6 6.5 6.7 6.5 6.5 7.2 6.8 7.1 7.5 7.7 8.0 6.8 6.9 6.5 6.5 6.5 6.8 6.5 6.5 6.5 7.3 7.7 7.7 8.0 8.2 8.2 8.2 8.4 8.3 8.4 8.1 7.5 7.1 7.0 7.5 8.1 8.4
7.0 5.3 5.7 6.4 6.3 6.1 6.2 6.1 6.8 7.5 8.5 8.7 6.8 6.9 7.2 7.1 6.5 6.5 6.5 6.5 6.5 6.9 7.3 7.3 6.6 7.4 7.7 7.8 6.8 6.5 6.5 6.5 6.9 6.5 6.5 6.5 6.9 7.5 7.8 8.0 8.0 8.4 8.4 8.3 8.4 8.5 8.5 8.5 8.5 7.9 7.1 7.1 7.6 8.1
7.1 5.4 5.4 5.9 7.1 6.2 5.6 6.5 7.2 9.0 7.9 7.1 6.9 6.5 6.5 6.5 6.5 6.5 6.5 6.5 7.3 7.5 7.6 7.5 7.1 6.8 7.3 6.6 6.7 6.5 6.5 6.6 6.5 6.5 6.5 6.5 7.0 7.6 7.8 8.1 8.0 7.9 8.1 8.2 8.3 8.4 8.3 8.4 8.2 8.2 8.3 8.0 7.9 8.0
6.6 5.2 4.8 5.6 6.6 6.5 6.6 6.2 8.0 9.2 7.9 7.1 7.1 6.5 6.5 7.0 7.2 7.3 7.6 7.5 7.8 8.3 7.8 7.3 7.1 7.1 6.6 6.5 6.5 6.5 6.5 6.5 6.5 6.5 6.5 7.0 7.6 7.7 7.9 8.0 8.0 8.0 7.7 7.9 8.3 7.9 6.7 6.1 5.6 5.1 6.2 6.9 8.1 6.4
6.1 5.1 5.9 6.1 6.1 6.4 6.4 7.1 7.9 8.1 7.6 7.7 7.2 6.6 7.1 6.7 6.5 6.9 7.4 7.2 8.0 7.9 8.1 7.6 6.6 6.5 6.5 6.5 6.5 6.5 6.5 6.5 6.5 6.5 7.2 7.3 6.9 5.9 6.1 8.1 8.2 8.3 8.3 8.2 8.4 8.0 7.2 3.4 3.2 5.0 4.6 4.4 3.7 4.0
5.5 5.1 6.2 6.2 5.8 6.1 6.5 6.4 6.7 6.3 7.3 7.2 6.7 7.5 7.0 6.7 6.8 7.2 7.7 7.8 8.3 7.6 6.5 6.6 6.5 6.5 6.6 6.4 6.5 6.5 6.5 6.5 6.9 7.2 7.8 7.9 7.8 7.0 5.3 6.3 8.3 8.3 8.3 8.3 8.3 7.4 6.3 5.7 4.3 4.8 4.2 5.1 6.2 7.3
6.5 6.4 6.1 5.8 5.1 5.6 5.0 5.9 6.8 6.9 6.8 7.2 6.6 6.8 7.3 7.3 7.2 7.3 7.9 8.1 7.9 7.5 7.2 6.5 7.0 6.5 6.6 6.4 6.5 6.5 6.8 7.2 7.5 7.5 7.9 8.2 8.2 8.4 7.9 8.2 8.4 8.4 8.4 7.9 7.6 7.0 7.0 6.8 7.7 7.6 7.4 7.0 6.4 6.4
6.4 6.3 5.1 5.3 7.5 6.7 6.0 5.7 6.5 6.8 7.1 7.3 7.3 7.7 7.8 7.6 8.0 8.3 8.3 8.4 8.3 8.4 7.6 7.1 6.5 6.5 6.5 6.6 6.6 6.8 6.9 7.1 7.1 7.4 7.8 8.3 8.4 8.2 8.3 8.4 8.3 8.4 8.1 7.9 8.5 7.6 7.5 8.4 8.0 7.7 7.5 7.0 6.8 6.7
6.4 6.5 5.7 6.5 7.9 6.5 6.7 6.9 8.4 7.5 6.8 7.3 7.6 7.3 7.5 7.6 8.0 8.1 8.1 8.1 8.0 7.5 6.8 6.6 6.5 6.9 7.0 7.3 7.5 7.4 7.7 7.9 7.6 7.3 7.5 7.7 7.8 8.3 8.3 7.8 7.4 8.1 7.9 8.3 8.2 5.5 7.6 7.8 7.8 7.9 8.0 7.2 6.5 5.8
6.4 6.5 6.3 6.6 5.9 7.1 7.5 7.5 7.5 7.7 7.6 7.2 7.5 7.5 7.2 7.8 7.5 7.4 7.5 8.3 7.4 7.0 6.7 7.5 7.3 7.8 8.0 7.7 8.3 8.4 7.9 8.4 7.7 7.7 7.5 7.5 7.9 7.7 7.9 8.1 8.3 7.8 7.8 7.8 7.8 7.7 6.2 7.6 7.8 7.4 7.2 6.3 6.2 5.8
4.9 6.2 5.3 6.6 6.3 7.6 7.8 8.4 7.8 8.0 7.5 7.3 7.4 7.5 7.0 6.7 6.9 7.3 8.0 7.2 7.2 7.5 7.8 7.7 7.8 8.0 8.0 8.0 8.1 8.4 8.4 8.3 8.3 8.0 6.1 6.8 7.7 7.8 7.9 7.9 7.9 7.6 7.7 7.7 7.9 7.6 7.7 7.8 7.9 7.5 6.8 4.8 4.7 5.4
6.4 6.7 5.5 5.4 6.8 7.1 6.8 8.3 7.2 7.4 6.5 6.7 7.3 6.6 6.6 6.8 7.4 8.2 6.7 7.3 7.5 7.9 8.1 8.5 8.4 8.4 8.2 8.3 8.5 8.3 8.4 8.3 7.8 7.9 7.9 8.1 8.1 8.1 8.1 8.0 7.9 7.7 7.5 7.7 8.1 8.0 7.8 6.7 6.8 5.1 5.2 6.0 5.2 4.9
6.0 5.7 6.7 6.9 7.0 6.7 7.5 7.0 7.5 7.1 7.1 6.6 6.5 6.5 6.6 6.8 7.6 6.9 6.5 7.0 7.6 8.0 7.9 8.0 8.3 7.9 7.8 7.8 7.7 7.9 7.5 7.5 7.7 8.1 8.3 8.1 8.0 8.0 8.2 8.0 8.2 8.2 8.3 8.0 7.9 7.7 7.6 6.4 5.1 6.2 4.3 4.7 4.6 5.2
6.8 6.6 6.9 6.6 7.2 6.7 6.5 6.5 6.6 6.5 6.5 6.5 6.5 6.5 6.5 7.3 6.5 6.5 6.5 6.8 7.5 7.5 7.7 7.9 7.7 7.6 7.6 7.7 7.8 8.0 8.0 7.8 7.8 7.9 8.2 8.1 7.9 7.9 7.9 7.9 7.7 8.0 7.9 7.4 6.5 5.8 4.6 4.1 3.9 4.0 4.5 4.9 4.8 5.0
6.5 6.9 6.7 6.6 6.7 6.6 6.5 6.5 6.5 6.5 6.4 6.5 6.5 6.9 7.1 6.5 6.5 6.5 6.5 7.1 7.2 7.5 5.9 6.8 6.9 7.4 7.7 7.9 7.7 7.9 8.1 8.1 7.8 7.7 7.9 7.8 7.7 7.6 7.3 6.9 6.9 7.2 7.4 7.5 6.7 5.2 5.1 4.8 4.6 5.2 5.6 5.3 4.7 5.0
6.5 6.5 7.3 8.1 7.5 7.2 6.7 6.8 7.2 6.6 6.5 6.5 6.5 6.5 6.5 6.5 6.5 6.6 7.6 7.8 7.8 7.9 8.0 7.9 7.8 7.9 7.8 7.9 7.8 7.8 7.8 7.8 7.9 7.7 7.8 7.8 7.9 8.2 7.9 7.0 6.8 7.3 7.8 7.6 5.8 5.0 5.5 5.6 5.8 5.7 5.8 5.6 5.2 4.9
7.1 7.2 6.5 6.9 6.8 7.3 6.5 6.5 6.5 6.5 6.5 7.1 6.9 6.5 6.5 6.5 6.5 7.4 7.8 8.3 8.2 8.0 7.8 8.0 8.4 8.1 7.9 7.9 8.1 8.2 8.1 8.0 7.7 7.7 7.9 8.1 8.2 8.2 7.7 7.7 7.6 5.2 6.4 5.3 5.3 5.1 5.0 5.1 5.1 5.2 5.2 5.5 5.8 5.3
6.9 7.5 7.4 6.5 6.7 6.8 6.7 6.5 6.6 7.1 7.5 7.2 6.5 6.5 6.6 7.5 7.4 7.6 7.7 7.5 7.4 7.5 7.7 7.6 7.7 7.8 8.0 8.2 8.1 8.2 7.9 7.5 7.0 6.7 6.8 7.0 7.1 6.9 7.3 6.4 5.8 5.6 5.3 5.0 4.8 4.5 4.4 4.3 4.5 4.8 5.1 5.5 5.7 5.5
6.9 7.7 6.9 6.7 6.5 6.5 7.0 7.0 6.5 5.4 6.9 7.7 7.8 7.8 7.8 7.5 7.5 7.4 7.1 7.0 7.6 6.6 5.2 5.1 5.6 5.5 5.2 5.2 5.2 5.5 5.7 5.4 5.8 6.3 6.4 6.6 6.8 6.3 5.8 5.6 5.3 5.0 4.7 4.7 4.9 4.7 4.0 4.7 4.8 5.5 5.9 6.2 6.1 6.2
7.7 7.5 6.9 6.8 6.6 6.9 6.3 4.0 3.9 5.4 4.7 4.3 3.9 5.3 6.3 7.0 6.9 6.8 6.9 7.0 5.9 3.1 3.3 3.9 3.9 4.2 4.6 5.2 5.8 6.1 6.1 5.4 6.0 5.8 6.0 6.0 5.6 5.5 5.3 5.2 4.6 4.4 4.6 5.1 5.5 5.9 6.2 6.3 6.6 6.7 6.6 6.6 6.5 6.7
7.3 6.9 6.7 6.6 6.7 6.4 5.9 6.8 6.9 6.5 6.4 7.0 5.9 5.2 5.6 5.4 6.8 7.4 6.2 4.5 3.3 3.5 4.0 4.3 4.5 5.0 5.3 5.3 5.4 5.6 5.5 5.5 5.0 5.2 5.4 5.1 4.9 4.9 4.4 4.2 4.4 4.8 5.2 5.6 5.8 6.2 6.6 7.0 7.2 7.2 7.2 7.1 7.0 6.8
7.1 7.2 7.0 7.0 6.8 6.8 7.0 6.3 7.0 6.8 6.7 6.9 6.8 6.8 7.2 7.3 6.8 6.9 5.8 3.6 4.1 4.4 4.3 4.6 4.4 4.5 4.6 4.7 4.6 4.3 4.3 4.5 4.4 3.6 3.4 3.6 3.7 3.8 4.3 4.6 4.8 5.2 5.8 6.3 6.4 6.6 6.9 7.1 7.3 7.3 7.3 7.3 7.1 6.9
Wind_Speed
19 17 18 19 14 13 10 10 16 18 20 20 15 31 31 29 26 12 6 7 3 3 4 8 11 8 2 2 6 7 6 2 4 5 5 5 6 9 11 14 14 10 8 9 11 11 12 9 14 8 7 5 8 9
20 20 16 16 16 15 14 9 12 16 9 21 26 34 32 28 25 21 5 8 8 4 3 8 9 12 11 12 5 7 3 8 5 5 4 4 5 4 11 8 12 12 8 6 4 7 4 10 11 10 5 6 7 9
19 19 19 16 15 15 16 11 9 13 16 22 39 35 29 25 21 17 4 6 3 3 3 1 2 6 9 10 9 3 2 4 1 5 3 3 6 4 6 10 12 12 10 9 9 8 10 1 5 5 8 5 6 7
19 19 20 20 18 16 16 14 12 16 19 31 36 32 30 24 18 14 6 5 3 3 3 4 2 4 5 5 7 8 7 4 4 2 1 3 3 3 7 9 10 8 11 12 13 11 10 9 12 6 4 5 9 12
19 20 20 21 20 17 15 15 10 18 30 32 33 30 27 22 17 9 6 3 2 2 2 5 7 4 4 3 4 3 3 1 3 2 2 3 5 5 7 8 9 9 11 9 9 12 12 14 15 15 14 12 11 13
19 20 21 21 21 20 14 14 10 22 36 35 33 31 27 21 15 7 2 3 4 3 2 4 5 6 5 4 4 5 3 1 2 2 2 3 7 1 3 7 12 14 14 14 14 15 16 16 17 19 16 15 14 14
19 19 22 21 22 20 12 9 13 27 36 35 30 27 23 21 8 1 1 4 5 2 1 5 4 3 6 5 3 3 1 2 2 2 4 7 7 4 7 13 15 16 15 15 15 15 15 15 14 16 18 20 18 17
18 19 22 23 25 13 9 6 14 36 40 37 30 23 15 18 13 4 4 8 5 2 3 2 4 5 6 5 4 2 3 2 3 3 3 5 6 7 7 11 13 14 15 16 16 16 16 15 16 17 17 17 18 16
19 19 23 26 18 8 9 10 23 39 38 36 31 23 6 3 3 4 5 4 3 1 1 2 6 4 5 4 5 2 3 2 2 4 7 5 7 7 10 10 10 10 11 11 13 16 18 18 20 20 19 18 17 16
17 20 26 19 8 9 12 24 15 39 39 40 14 3 3 3 27 14 2 2 3 1 0 3 6 5 7 4 3 4 2 2 3 6 4 6 11 18 19 17 13 12 13 8 10 12 15 17 18 21 21 20 18 16
15 21 25 9 5 10 13 20 45 48 36 3 3 2 8 20 3 3 2 3 2 2 3 3 6 7 3 5 4 5 1 2 3 3 5 4 6 11 13 16 15 8 4 3 4 6 9 11 14 16 19 20 18 19
13 19 22 8 5 17 26 52 50 12 6 8 8 8 5 3 2 3 4 4 4 5 7 8 6 8 3 2 2 1 1 2 5 3 2 3 6 5 1 3 5 2 3 3 3 7 9 10 11 12 13 15 17 18
10 17 18 8 7 34 37 38 24 27 32 8 5 3 4 2 3 7 8 4 5 7 8 10 8 4 3 2 2 3 2 4 5 2 4 5 9 6 5 5 4 5 5 5 7 8 10 12 9 9 10 12 15 15
8 15 16 14 12 28 48 29 32 20 4 3 5 6 6 5 6 5 9 8 8 10 11 10 6 2 3 3 3 3 4 3 3 4 10 6 8 12 4 6 5 4 4 7 9 11 12 12 12 13 12 12 11 14
8 15 19 12 22 42 35 38 27 2 2 3 4 4 5 4 8 6 8 10 9 11 10 8 5 3 3 2 2 3 3 4 5 7 4 4 7 2 8 6 4 5 4 6 9 8 7 8 10 13 13 13 14 12
7 14 3 25 36 45 36 17 3 2 0 2 4 4 6 9 5 9 9 9 9 9 9 5 4 4 3 3 4 5 4 6 4 3 3 4 5 8 14 9 8 7 7 8 9 9 8 6 7 12 12 10 12 11
5 3 25 37 32 27 13 3 2 4 2 4 2 4 4 5 6 7 10 9 9 8 5 4 6 5 4 3 5 5 5 7 7 7 7 10 10 3 5 17 7 7 7 8 9 6 6 6 7 9 11 12 8 10
2 16 32 32 16 8 2 5 3 2 2 2 3 4 5 7 7 8 7 7 8 7 6 3 4 6 5 6 4 4 6 6 7 7 8 10 11 10 9 7 7 9 9 7 5 7 8 8 10 8 9 9 5 7
3 13 35 27 8 4 3 2 2 3 3 2 3 1 7 6 6 8 8 8 7 6 4 2 4 5 8 7 7 6 5 5 6 7 9 12 11 12 9 8 8 9 9 7 8 6 5 9 9 9 8 7 6 3
11 14 30 22 1 3 3 2 1 3 2 2 2 3 4 6 6 7 7 8 7 5 4 4 5 5 5 4 4 5 6 7 7 8 8 7 8 10 10 9 6 7 7 8 9 6 5 6 6 7 7 5 1 2
13 14 27 5 2 3 2 2 3 3 3 2 3 4 5 6 7 6 6 8 5 4 5 7 6 6 8 6 6 6 7 7 9 9 10 9 8 9 7 7 9 7 6 8 8 7 5 5 6 6 7 5 1 1
6 21 3 2 3 2 2 3 4 5 2 4 5 4 4 4 5 6 7 7 7 8 7 8 7 7 8 10 9 11 9 10 10 9 9 9 9 9 9 9 9 9 9 9 8 8 8 6 5 5 6 2 2 2
14 5 3 3 3 3 1 2 3 3 4 6 4 3 4 4 5 5 3 6 7 7 7 8 12 12 12 13 12 10 10 10 8 8 8 8 8 9 9 9 8 10 11 11 9 9 8 6 5 3 4 3 3 3
7 3 3 3 3 4 3 2 3 3 4 5 5 3 3 3 3 3 6 6 6 6 8 13 9 9 9 9 7 8 7 6 7 7 7 8 8 9 9 9 9 9 9 9 8 8 9 7 5 6 4 5 5 6
4 4 3 4 3 4 4 4 4 3 3 4 4 3 3 3 3 4 6 3 6 7 7 7 7 7 8 8 7 8 7 4 6 8 6 6 7 7 8 9 9 9 8 8 9 9 8 6 7 7 8 7 8 9
4 2 1 4 4 4 5 4 4 5 4 3 4 4 4 3 4 6 3 4 7 7 5 6 6 7 7 8 9 8 8 6 5 7 8 7 8 9 10 10 10 10 6 8 9 9 10 8 8 9 11 10 11 10
3 2 3 2 4 7 4 3 6 3 4 5 4 4 4 4 5 4 3 3 4 3 4 4 5 7 8 8 7 6 5 5 8 9 9 8 8 9 10 11 14 12 7 6 4 5 6 8 10 11 11 8 8 9
2 4 6 6 3 3 4 4 5 6 4 5 7 5 4 5 3 1 1 1 2 4 5 5 7 7 8 8 8 8 8 8 9 9 9 10 9 8 8 8 8 8 7 5 5 6 8 10 10 10 9 9 7 8
2 5 6 5 2 2 3 4 4 4 3 5 6 5 4 3 2 4 5 5 5 6 9 9 9 8 8 8 7 6 6 6 9 17 20 13 10 6 4 3 5 6 5 5 6 6 8 7 7 7 8 7 5 6
4 5 3 3 3 3 2 0 1 4 2 1 3 5 6 7 6 5 7 8 9 9 6 6 6 5 7 8 9 9 6 5 6 7 10 11 9 5 5 6 6 6 5 4 4 1 2 3 2 1 3 3 5 5
6 3 2 3 2 2 2 2 1 1 1 2 3 3 6 5 5 6 8 7 4 4 5 6 6 6 6 7 6 7 8 3 5 7 8 7 7 7 6 5 2 1 2 2 1 1 1 1 1 2 4 5 6 6
4 2 3 3 2 2 1 1 0 1 1 2 2 2 3 3 4 3 2 2 3 4 4 4 5 4 2 3 5 6 10 8 8 7 9 6 6 4 1 2 1 1 2 2 2 1 0 0 2 3 4 7 7 7
2 2 1 3 3 3 2 1 1 1 3 3 3 1 2 2 4 3 2 3 1 3 5 5 6 6 8 8 7 7 7 5 6 5 5 2 4 4 3 3 3 3 3 3 4 3 3 4 5 5 6 8 9 9
Wind_Direction
336 339 336 343 342 333 300 256 232 215 204 207 213 175 172 172 174 197 172 165 233 265 299 345 356 19 80 304 142 141 121 253 195 195 204 223 248 237 242 249 242 197 205 217 225 239 261 276 277 292 41 11 21 13
335 336 335 339 340 329 310 290 240 205 220 223 201 169 165 171 181 199 173 185 209 248 63 44 34 32 32 35 39 153 157 173 186 190 236 215 239 266 259 250 242 260 263 214 276 217 351 19 31 11 41 9 5 358
329 328 333 332 328 322 321 304 289 213 245 233 167 156 163 172 181 194 156 165 210 132 119 177 85 38 45 27 10 176 167 59 34 20 302 262 259 265 239 254 279 262 261 265 270 235 219 140 284 273 291 316 349 334
322 325 324 326 321 315 316 312 296 233 233 160 145 152 168 168 182 203 165 189 213 182 166 115 162 83 29 28 45 31 59 76 42 253 290 300 258 319 273 288 282 277 317 281 283 292 296 198 212 328 329 336 329 327
317 317 320 320 319 309 306 305 261 213 152 145 149 156 156 162 183 206 147 179 347 297 163 123 112 109 96 117 107 73 43 142 204 185 227 234 276 300 284 281 262 271 279 278 276 309 330 317 324 325 318 314 318 315
312 312 314 314 318 315 299 301 253 228 156 147 149 156 151 162 174 132 105 218 224 293 129 155 96 143 121 115 124 134 151 221 291 304 267 267 275 251 264 257 249 249 260 274 286 293 294 296 300 303 305 306 311 310
307 307 310 312 314 312 277 280 206 142 137 139 147 145 149 166 179 214 123 124 166 301 140 123 119 134 147 150 136 155 102 183 251 236 240 262 268 205 257 257 275 293 291 288 292 298 292 290 294 302 303 301 299 291
307 307 309 309 306 288 243 244 242 155 148 144 144 131 102 118 129 99 30 45 356 282 283 128 103 137 194 158 136 135 166 224 190 250 248 243 248 246 253 253 255 258 262 261 259 264 274 283 284 283 282 279 280 284
308 314 314 309 291 227 203 154 144 132 131 129 121 137 145 233 135 122 154 304 32 18 209 140 152 135 172 178 102 106 22 241 249 239 243 257 237 227 247 252 254 259 269 293 306 306 301 296 293 294 298 295 290 293
312 320 314 310 247 209 195 167 174 140 134 129 127 123 164 126 121 139 102 87 6 320 295 225 142 123 185 151 135 150 176 251 236 220 214 235 249 259 265 264 262 269 275 351 344 316 328 321 318 312 305 304 307 307
318 316 325 292 256 226 175 176 139 131 133 143 123 123 118 153 180 81 115 129 152 189 192 216 138 143 197 181 152 194 199 278 264 251 189 232 253 261 251 232 243 247 23 64 322 319 312 306 306 302 299 295 296 297
318 319 335 316 313 109 132 135 134 128 158 138 115 111 151 168 85 122 144 156 195 185 171 170 162 125 112 25 101 88 210 250 259 315 253 257 271 329 146 107 178 179 149 264 286 279 273 277 288 292 292 295 294 294
323 313 325 320 200 137 142 143 135 135 121 101 57 78 141 161 151 180 165 174 176 154 161 142 141 116 131 189 99 117 213 246 286 237 249 259 281 270 206 203 199 206 195 232 275 296 307 304 276 274 293 289 291 289
313 312 323 314 210 167 156 154 154 145 85 100 143 148 205 171 204 203 164 153 155 149 146 150 132 118 109 161 171 203 223 204 255 257 268 286 321 302 242 237 211 237 269 268 278 285 284 292 306 303 295 306 296 292
324 310 306 284 198 160 155 153 171 87 75 128 165 157 185 174 182 176 163 128 144 137 141 117 110 106 114 84 264 208 229 254 240 260 327 334 332 15 282 275 232 257 251 259 275 282 275 272 285 294 289 299 292 296
326 304 229 133 136 140 137 149 86 110 315 156 203 180 169 148 158 128 128 129 130 134 123 136 142 154 172 188 187 222 233 225 251 1 312 279 186 213 247 242 240 253 278 286 283 281 280 227 247 277 277 286 282 271
316 294 122 123 113 128 103 112 109 44 51 174 227 142 85 126 122 140 140 137 141 141 144 141 167 173 166 214 221 194 230 258 293 295 290 292 287 262 29 299 284 287 300 299 297 311 304 279 258 264 268 270 266 302
312 124 134 139 103 78 24 17 78 106 112 137 137 115 147 154 162 136 139 148 155 166 156 163 166 196 195 213 215 246 267 273 280 285 284 284 285 277 228 262 289 293 295 302 284 272 276 289 293 297 282 271 268 287
150 145 142 148 143 113 86 36 337 78 65 17 94 139 148 157 155 140 146 159 166 171 124 181 224 232 226 238 262 278 283 284 288 270 269 275 282 285 269 273 280 284 279 268 286 280 274 293 288 287 288 271 258 271
225 163 158 172 183 69 98 82 263 95 106 148 171 185 160 149 155 142 153 168 177 168 179 222 223 236 258 285 313 315 317 316 305 293 286 276 277 287 281 268 246 254 276 292 282 267 280 292 289 302 298 291 295 322
192 161 163 104 67 53 115 152 91 87 128 129 195 148 142 160 166 167 175 189 185 193 222 229 246 258 266 272 276 280 288 291 286 285 290 285 278 285 286 287 297 291 281 278 273 284 264 285 301 309 307 321 73 149
124 127 113 81 84 49 72 335 128 131 106 146 189 157 161 175 190 202 202 206 218 226 226 250 261 274 279 280 287 295 294 294 291 289 286 282 280 275 270 269 273 273 271 262 269 278 278 273 271 283 286 206 195 184
114 98 59 79 100 65 86 286 110 141 123 159 175 177 177 189 195 207 231 236 239 239 244 253 261 265 270 277 290 294 282 280 280 280 280 279 275 273 272 275 269 269 270 267 262 266 270 266 260 227 266 209 193 188
59 75 100 100 104 121 173 146 133 94 115 162 179 187 196 183 179 224 248 235 226 226 233 246 249 256 258 253 261 265 260 250 256 264 265 267 268 271 273 275 275 270 268 270 267 268 264 263 248 261 219 207 205 220
83 56 88 95 135 134 138 133 151 123 137 191 162 182 167 159 199 247 247 241 215 229 238 246 250 254 264 267 263 263 255 241 254 265 263 254 261 264 265 263 260 255 258 262 260 260 258 250 257 258 259 240 237 234
81 145 139 129 159 128 139 134 152 162 132 159 169 174 155 189 229 244 244 206 231 238 233 236 250 264 267 263 263 255 254 248 244 260 267 265 266 266 268 269 272 267 240 252 259 256 258 258 252 257 265 249 232 230
122 137 166 132 140 140 104 120 140 130 162 167 165 159 166 214 241 246 247 231 244 251 249 252 263 263 262 264 262 268 265 257 260 271 279 275 273 271 271 273 273 279 287 288 294 282 262 265 269 267 258 241 225 219
116 135 148 150 129 137 130 141 171 180 179 156 149 182 200 215 247 244 196 302 260 271 266 258 259 263 264 268 272 276 273 273 272 272 272 267 265 270 272 274 273 287 287 280 263 274 266 262 260 255 249 243 235 213
116 140 124 124 141 141 189 171 194 203 182 168 179 201 223 232 281 295 297 295 282 276 273 270 266 266 273 283 285 290 298 299 295 283 281 284 292 288 293 322 317 305 291 277 264 256 264 263 259 251 244 244 205 169
153 161 113 160 176 183 193 111 83 13 325 251 231 262 277 276 280 292 287 282 278 274 269 275 288 288 277 277 281 281 278 268 258 262 278 285 289 305 283 273 275 277 275 270 276 239 269 262 247 211 165 142 145 152
153 136 132 156 180 74 53 34 347 251 5 333 339 285 273 300 300 280 265 274 318 345 321 303 298 295 288 288 283 284 289 244 250 258 261 274 282 282 282 281 279 295 288 288 293 267 231 225 190 143 136 133 134 138
167 191 152 144 140 123 131 83 48 272 256 267 263 263 297 272 268 263 64 48 333 308 291 282 275 294 300 295 281 272 265 274 274 275 276 275 280 287 55 55 51 30 44 45 40 53 345 140 151 168 163 145 140 138
106 125 73 124 134 158 143 217 233 256 218 247 241 241 285 285 276 296 148 133 197 284 304 305 304 301 297 289 287 289 288 285 293 318 329 12 68 69 70 64 61 63 66 74 72 71 65 83 92 102 111 116 116 120